West Point Lake Weather Center

Moon Phase Calendar



West Point Lake Water Level
Online Cameras

 


      

Current Conditions in Rockwell Estates
10/28/2020 10:19:29 PM

74°F
Feels Like 78
Clear
Humidity
88%
Pressure
29.88"
Wind
6.9 mph (SE)
Dew Point
70°F
UV Index
5/10 (Moderate)
Visibility
6 mi

Hourly Forecast

Date & Time Wed, Oct 28
10:00 PM
Wed, Oct 28
11:00 PM
Thu, Oct 29
12:00 AM
Thu, Oct 29
1:00 AM
Thu, Oct 29
2:00 AM
Thu, Oct 29
3:00 AM
Thu, Oct 29
4:00 AM
Thu, Oct 29
5:00 AM
Thu, Oct 29
6:00 AM
Thu, Oct 29
7:00 AM
Thu, Oct 29
8:00 AM
Thu, Oct 29
9:00 AM
Thu, Oct 29
10:00 AM
Thu, Oct 29
11:00 AM
Thu, Oct 29
12:00 PM
Thu, Oct 29
1:00 PM
Thu, Oct 29
2:00 PM
Thu, Oct 29
3:00 PM
Thu, Oct 29
4:00 PM
Thu, Oct 29
5:00 PM
Thu, Oct 29
6:00 PM
Thu, Oct 29
7:00 PM
Thu, Oct 29
8:00 PM
Thu, Oct 29
9:00 PM
Thu, Oct 29
10:00 PM
Thu, Oct 29
11:00 PM
Fri, Oct 30
12:00 AM
Fri, Oct 30
1:00 AM
Fri, Oct 30
2:00 AM
Fri, Oct 30
3:00 AM
Fri, Oct 30
4:00 AM
Fri, Oct 30
5:00 AM
Fri, Oct 30
6:00 AM
Fri, Oct 30
7:00 AM
Fri, Oct 30
8:00 AM
Fri, Oct 30
9:00 AM
Fri, Oct 30
10:00 AM
Fri, Oct 30
11:00 AM
Fri, Oct 30
12:00 PM
Fri, Oct 30
1:00 PM
Fri, Oct 30
2:00 PM
Fri, Oct 30
3:00 PM
Fri, Oct 30
4:00 PM
Fri, Oct 30
5:00 PM
Fri, Oct 30
6:00 PM
Fri, Oct 30
7:00 PM
Fri, Oct 30
8:00 PM
Fri, Oct 30
9:00 PM
Condition
Clear

Clouds

Clouds

Rain

Rain

Rain

Rain

Rain

Rain

Clouds

Clouds

Clouds

Rain

Rain

Rain

Rain

Rain

Clouds

Clear

Clear

Clear

Clear

Clear

Clear

Clear

Clear

Clear

Clear

Clear

Clouds

Clouds

Clouds

Clouds

Clouds

Clouds

Clouds

Clouds

Clouds

Clouds

Clouds

Clouds

Clear

Clear

Clear

Clear

Clear

Clear

Clear
Temperature 74°F73°F72°F72°F73°F73°F74°F75°F74°F73°F72°F72°F73°F73°F75°F75°F78°F79°F79°F77°F73°F66°F61°F58°F56°F54°F52°F51°F52°F54°F55°F54°F54°F54°F53°F55°F56°F57°F60°F62°F64°F65°F65°F64°F61°F56°F54°F52°F
Feels Like 77°F76°F74°F72°F70°F65°F65°F68°F69°F71°F72°F73°F74°F75°F75°F76°F77°F77°F76°F73°F71°F57°F53°F50°F47°F45°F44°F43°F45°F48°F49°F50°F49°F49°F48°F48°F49°F50°F53°F55°F58°F59°F59°F58°F57°F52°F49°F47°F
Cloudiness 1%49%79%94%99%100%100%100%100%100%100%94%95%97%95%94%84%14%10%8%7%6%5%0%0%1%1%1%10%90%70%62%60%54%52%93%97%96%83%66%55%0%0%0%0%0%0%0%
Visibility 6 mi6 mi6 mi6 mi6 mi6 mi4 mi6 mi6 mi6 mi6 mi6 mi6 mi6 mi6 mi6 mi6 mi6 mi6 mi6 mi6 mi6 mi6 mi6 mi6 mi6 mi6 mi6 mi6 mi6 mi6 mi6 mi6 mi6 mi6 mi6 mi6 mi6 mi6 mi6 mi6 mi6 mi6 mi6 mi6 mi6 mi6 mi6 mi
Precipitation 43%46%42%48%56%98%98%100%100%80%80%27%42%64%82%100%100%63%43%30%25%11%5%0%0%0%0%0%0%0%0%0%0%0%0%0%0%0%0%0%0%0%0%0%0%0%0%0%
Humidity 88%90%89%90%89%87%90%88%89%89%90%91%89%89%84%82%72%63%58%57%64%51%60%64%65%68%69%73%76%75%78%82%82%82%80%74%73%71%64%59%55%53%52%54%62%70%74%74%
Dew Point 70°F70°F69°F69°F69°F69°F71°F71°F71°F70°F70°F70°F70°F70°F70°F69°F68°F66°F63°F61°F60°F48°F47°F46°F44°F43°F42°F43°F45°F47°F48°F49°F49°F48°F48°F47°F47°F47°F48°F48°F48°F47°F47°F47°F48°F47°F46°F44°F
Pressure 29.88"29.88"29.83"29.74"29.65"29.56"29.56"29.56"29.62"29.68"29.74"29.74"29.77"29.74"29.74"29.74"29.71"29.68"29.65"29.65"29.68"29.71"29.74"29.8"29.83"29.85"29.88"29.88"29.88"29.88"29.91"29.91"29.94"29.97"30"30.03"30.06"30.09"30.09"30.09"30.06"30.06"30.06"30.06"30.06"30.09"30.12"30.12"
Wind Speed 8.9 mph9.2 mph9.6 mph12.7 mph18.1 mph27 mph28.6 mph26.1 mph21.6 mph17.6 mph13.7 mph11.5 mph11.3 mph10.2 mph11.8 mph11.8 mph13.6 mph13.9 mph13.3 mph12.9 mph9.3 mph14.8 mph13.4 mph13.3 mph13.3 mph13.3 mph11 mph10.4 mph9.5 mph10.1 mph9.3 mph8 mph8.1 mph8.2 mph8.1 mph10.5 mph10.7 mph10.8 mph10.8 mph10.3 mph9.5 mph9.3 mph9.1 mph8.6 mph6.8 mph6.1 mph6.6 mph6.7 mph
Wind
Direction
139°
SE
143°
SE
143°
SE
140°
SE
138°
SE
155°
SSE
190°
S
211°
SSW
220°
SW
225°
SW
227°
SW
227°
SW
230°
SW
228°
SW
229°
SW
226°
SW
229°
SW
230°
SW
224°
SW
232°
SW
234°
SW
253°
WSW
256°
WSW
264°
W
274°
W
281°
W
272°
W
281°
W
285°
WNW
292°
WNW
290°
WNW
301°
WNW
301°
WNW
304°
NW
311°
NW
323°
NW
328°
NNW
331°
NNW
338°
NNW
340°
NNW
342°
NNW
342°
NNW
347°
NNW
349°
N
350°
N
342°
NNW
353°
N
353°
N

Daily Forecast

Date High Low Precip. Humidity
Today
Oct 28

Rain
80 °F
70 °F
100%
75%
Thursday
Oct 29

Rain
78 °F
54 °F
100%
72%
Friday
Oct 30

Clouds
64 °F
49 °F
0%
55%
Saturday
Oct 31

Clear
67 °F
47 °F
0%
55%
Sunday
Nov 1

Clouds
71 °F
52 °F
0%
55%
Monday
Nov 2

Clear
53 °F
36 °F
0%
41%
Tuesday
Nov 3

Clear
66 °F
35 °F
0%
28%
Wednesday
Nov 4

Clear
71 °F
42 °F
0%
30%
Thursday
Nov 5

Clouds
68 °F
47 °F
0%
38%
Friday
Nov 6

Clouds
72 °F
51 °F
0%
56%
Saturday
Nov 7

Clouds
72 °F
53 °F
0%
58%
Sunday
Nov 8

Rain
76 °F
56 °F
36%
64%
Monday
Nov 9

Clouds
72 °F
62 °F
0%
77%
Tuesday
Nov 10

Clouds
77 °F
63 °F
0%
67%
Wednesday
Nov 11

Rain
74 °F
57 °F
96%
73%
Thursday
Nov 12

Clouds
69 °F
48 °F
0%
63%


Temperature 8-14 Day Outlook



Precipitation 8-14 Day Outlook




Quick Links
West Point Lake News
West Point Lake Photos
West Point Lake Videos




About Us
Contact Us
Site Map
Search Site
Advertise With Us
   
www.WestPointLake.info
THE WEST POINT LAKE WEBSITE

Copyright 2020, Lakes Online
Privacy    |    Legal